Regional Weather Roundup
Issued by NWS Little Rock, AR

Home | Current Version | Previous Version | Graphics & Text | Print | Product List | Glossary On
Versions: 1 2 3 4 5 6 7 8 9 10 11 12 13 14 15 16 17 18 19 20 21 22 23 24 25 26 27
000
ASUS44 KLZK 250505
RWRLZK

WEATHER ROUNDUP FOR ARKANSAS
NATIONAL WEATHER SERVICE LITTLE ROCK AR
1200 AM CDT WED MAY 25 2016

NOTE: "FAIR" INDICATES FEW OR NO CLOUDS BELOW 12,000 FEET WITH NO
SIGNIFICANT WEATHER AND/OR OBSTRUCTIONS TO VISIBILITY.

ARZ001-003-010-029-250600-
NORTHWEST ARKANSAS

CITY           SKY/WX    TMP DP  RH WIND       PRES   REMARKS
FAYETTEVILLE   CLOUDY    70  69  97 S17       29.95S
FORT SMITH     CLOUDY    71  67  87 E7        29.98F
HARRISON       CLOUDY    63  62  97 SE14      29.96F
BENTONVILLE    CLOUDY    73  55  53 S12G22    29.94R
ROGERS           N/A     73  56  54 S14       29.94R
SILOAM SPGS    MOCLDY    72  57  60 S16G24    29.95R
HIGHFILL       MOCLDY    72  63  73 S21G30    29.92R
$$

ARZ004-005-016-250600-
NORTH CENTRAL ARKANSAS

CITY           SKY/WX    TMP DP  RH WIND       PRES   REMARKS
BATESVILLE     PTCLDY    64  61  88 CALM      30.03F
FLIPPIN        CLOUDY   N/A N/A N/A E3        30.00F
MTN HOME       CLOUDY    61  61 100 S5        30.02F
$$

ARZ040-041-250600-
WEST CENTRAL ARKANSAS

CITY           SKY/WX    TMP DP  RH WIND       PRES   REMARKS
MENA           CLOUDY    73  72  94 CALM      30.03S
MOUNT IDA      MOCLDY    77  69  76 E7        30.02F
$$

ARZ009-017-025-026-028-250600-
NORTHEAST ARKANSAS

CITY           SKY/WX    TMP DP  RH WIND       PRES   REMARKS
CORNING          N/A     64  64 100 SE3       30.03F
JONESBORO      CLOUDY    67  66  97 E5        30.03F
NEWPORT        PTCLDY    66  66 100 S7        30.05R
WALNUT RIDGE   CLOUDY    64  61  88 SW9       30.03S
BLYTHEVILLE    CLOUDY    68  68 100 CALM      30.03F
$$

ARZ022-023-033-042-044-250600-
CENTRAL ARKANSAS

CITY           SKY/WX    TMP DP  RH WIND       PRES   REMARKS
LITTLE ROCK    MOCLDY    68  64  87 CALM      30.08F
N LITTLE ROCK    N/A     65  63  93 S6        30.05F
JACKSONVILLE   PTCLDY    66  65  97 SE1       30.06F
SEARCY         CLOUDY    64  64 100 SW6       30.06F
HOT SPRINGS    MOCLDY    71  63  75 E10       30.07S
RUSSELLVILLE   CLOUDY    66  64  93 VRB5      30.07S
CLINTON        FAIR      64  64 100 CALM      30.07F
$$

ARZ036-250600-
EAST ARKANSAS

CITY           SKY/WX    TMP DP  RH WIND       PRES   REMARKS
WEST MEMPHIS   CLOUDY    66  65  96 S6        30.04F
$$

ARZ050-053-066-070-073-250600-
SOUTHWEST ARKANSAS

CITY           SKY/WX    TMP DP  RH WIND       PRES   REMARKS
ARKADELPHIA    MOCLDY    75  73  93 E7        30.06S
CAMDEN         CLOUDY    75  66  73 CALM      30.04F
TEXARKANA      PTCLDY    77  70  79 SE7       30.01F
EL DORADO      CLOUDY    75  71  87 E3        30.05F
DE QUEEN       CLOUDY    76  72  87 E5        29.98S
$$

ARZ056-057-069-250600-
SOUTHEAST ARKANSAS

CITY           SKY/WX    TMP DP  RH WIND       PRES   REMARKS
PINE BLUFF     CLOUDY    69  63  81 E9        30.08F
STUTTGART      CLOUDY    68  61  77 SE7       30.07F
MONTICELLO     CLOUDY    69  66  90 E7        30.09F

$$






USA.gov is the U.S. government's official web portal to all federal, state and local government web resources and services.